STARLINK-1661, 46355

Orbit data source: Space-Track

STARLINK-1661, 46355 is a payload satellite owned by SpaceX/Seattle (US) in LEO that was launched on Thu, 03 Sep 2020 UTC via an FALCON 9 launch vehicle from the Air Force Eastern Test Range (AFETR). Payload-class satellites include a variety of spacecraft equipped with specific instruments for various scientific and technological missions. These include communications satellites like Starlink; space stations such as the ISS; scientific satellites like the Hubble; Earth observation satellites from companies like Planet Labs, Umbra, and HawkEye 360; GPS; miniature CubeSats for education and research; and military/defense satellites.

Loading next visibility...
Identifier
46355, 2020-062AG
Orbit
LEO
Country
Flag of USUS
Related business
Manufacturer
SpaceX/Seattle
Mission
Operational Commercial Communications
Bus & Motor
STARLINK, Unknown motor
Mass
260 kg wet, ~248 kg dry
Launch date (UTC)
2020-09-03 (5 years ago)
Launch vehicle
FALCON 9
Launch site
Air Force Eastern Test Range (AFETR)
Object type
Payload
Rocket body
Debris
Shape & HBR
Box + 1 Pan, 10.1 m
Radar Cross Section
13.562 m², Large (>1 m²)

Expand to show TLE details & history
Last TLE update: 9 hours ago

TLE from 9 hours ago
0 STARLINK-1661
1 46355U 20062AG  26036.50002314  .00922430  00000-0  32708-1 0  9996
2 46355  53.1409 160.4180 0001423  86.4596 154.2480 15.26078406  5777
Epoch: 2026-02-05T12:00Z
TLE epoch observation values (Epoch: 2026-02-05T12:00:01.999Z)
Latitude
-44.44794°
Longitude
71.75754°
Altitude
503.431 km
Speed
7.612 km/s
True Right ascension
01h 49m 40s
True Declination
-44° 16' 11"
Sunlit
Object was in daylight at epoch
Visualization orbit readout
Latitude
Unknown
Longitude
Unknown
Altitude
Unknown
Speed
Unknown
Apparent Right ascension
Unknown
Apparent Declination
Unknown
Sunlit
N/A
Visualization observer readout
Local Sidereal Time
23:08:54
Azimuth
Unknown
Elevation
Unknown
Doppler factor
Unknown
Orbital elements
Apogee altitude
488.785 km
Perigee altitude
486.831 km
Semi-major axis
6,865.945 km
Eccentricity
0.00014
Inclination
53.1409°
RAAN
160.418°
Arg. of periapsis
86.4596°
True anomaly
154.25508°
Mean anomaly
154.248°
Eccentric anomaly
154.25154°
Mean motion
3.81498 °/min
Orbital period
94.36 mins
BSTAR
0.032708
Loading maneuver chart data...
Computing Atmospheric mass density...
Loading historical data...
Loading historical data...
Loading historical data...
Loading historical data...
Loading historical data...
Loading historical data...
Loading historical data...

Documentation

Showing up to 5 results
|